Weather History for Bastrop, LA

Change the Weather History Date:

Monday, May 19, 2014

  Actual Average (KMLU) Record (KMLU)
Temperature  
Mean Temperature 71 °F 75 °F  
Max Temperature 84 °F 86 °F 95 °F (1933)
Min Temperature 58 °F 64 °F 45 °F (2002)
Degree Days  
Heating Degree Days 0 0  
Month to date heating degree days 3  
Since 1 July heating degree days 2227  
Cooling Degree Days 6 10  
Month to date cooling degree days 150  
Year to date cooling degree days 297  
Growing Degree Days 21 (Base 50)    
Moisture  
Dew Point 61 °F    
Average Humidity 70    
Maximum Humidity 96    
Minimum Humidity 47    
Precipitation  
Precipitation 0.00 in 0.16 in 4.10 in (1930)
Month to date precipitation 3.25  
Year to date precipitation 22.11  
Snow  
Snow 0.00 in - - ()
Month to date snowfall  
Since 1 July snowfall  
Snow Depth -    
Sea Level Pressure  
Sea Level Pressure 30.11 in    
Wind  
Wind Speed 4 mph (SSE)    
Max Wind Speed 12 mph    
Max Gust Speed 20 mph    
Visibility 9 miles    
Events      
T = Trace of Precipitation, MM = Missing Value Source: NWS Daily Summary

Daily Weather History Graph

Daily Weather History Graph

Search for Another Location

Airport:

Trip Planner

Search our weather history database for the weather conditions in past years. The results will help you decide how hot, cold, wet, or windy it might be!

Date:

Astronomy

May. 19, 2014 Rise Set
Actual Time 6:06 AM CDT 8:02 PM CDT
Civil Twilight 5:38 AM CDT 8:29 PM CDT
Nautical Twilight 5:05 AM CDT 9:03 PM CDT
Astronomical Twilight 4:30 AM CDT 9:38 PM CDT
Moon No Moon Rise 10:58 AM CDT (5/19)
Length of Visible Light 14h 51m
Length of Day
13h 56m
Waning Gibbous, 71% of the Moon is Illuminated
May 19
Waning Gibbous
May 21
Last Quarter
May 28
New
Jun 5
First Quarter
Jun 12
Full

Hourly Weather History & Observations

Time (CDT) Temp. Heat Index Dew Point Humidity Pressure Visibility Wind Dir Wind Speed Gust Speed Precip Events Conditions
12:15 AM 64.8 °F - 61.0 °F 88% 30.12 in 10.0 mi East 3.5 mph - N/A   Clear
12:35 AM 64.0 °F - 61.0 °F 90% 30.12 in 10.0 mi East 4.6 mph - N/A   Clear
12:55 AM 64.4 °F - 60.8 °F 88% 30.11 in 10.0 mi East 3.5 mph - N/A   Clear
1:15 AM 63.5 °F - 60.6 °F 90% 30.11 in 10.0 mi East 3.5 mph - N/A   Clear
1:35 AM 62.8 °F - 60.3 °F 91% 30.11 in 10.0 mi ENE 3.5 mph - N/A   Clear
1:55 AM 62.8 °F - 60.3 °F 91% 30.10 in 10.0 mi East 3.5 mph - N/A   Clear
2:15 AM 62.8 °F - 60.3 °F 91% 30.10 in 10.0 mi East 3.5 mph - N/A   Clear
2:35 AM 62.8 °F - 60.1 °F 91% 30.10 in 10.0 mi Calm Calm - N/A   Clear
2:55 AM 63.0 °F - 60.3 °F 91% 30.10 in 10.0 mi East 4.6 mph - N/A   Clear
3:15 AM 63.1 °F - 60.1 °F 90% 30.10 in 10.0 mi ESE 3.5 mph - N/A   Clear
3:35 AM 62.8 °F - 59.7 °F 90% 30.10 in 10.0 mi Calm Calm - N/A   Clear
3:55 AM 62.6 °F - 59.2 °F 89% 30.10 in 10.0 mi Calm Calm - N/A   Clear
4:15 AM 60.3 °F - 58.8 °F 95% 30.11 in 7.0 mi Calm Calm - N/A   Clear
4:35 AM 59.7 °F - 58.3 °F 95% 30.11 in 5.0 mi Calm Calm - N/A   Clear
4:55 AM 59.5 °F - 58.3 °F 96% 30.11 in 5.0 mi Calm Calm - N/A   Clear
5:15 AM 59.2 °F - 57.9 °F 96% 30.11 in 5.0 mi Calm Calm - N/A   Clear
5:35 AM 59.2 °F - 57.9 °F 96% 30.11 in 5.0 mi Calm Calm - N/A   Clear
5:55 AM 58.5 °F - 57.2 °F 96% 30.12 in 7.0 mi Calm Calm - N/A   Clear
6:15 AM 58.3 °F - 57.2 °F 96% 30.12 in 5.0 mi Calm Calm - N/A   Clear
6:35 AM 58.6 °F - 57.4 °F 96% 30.12 in 5.0 mi Calm Calm - N/A   Clear
6:55 AM 60.1 °F - 58.8 °F 96% 30.13 in 5.0 mi Calm Calm - N/A   Clear
7:15 AM 62.8 °F - 60.8 °F 93% 30.14 in 7.0 mi Calm Calm - N/A   Clear
7:35 AM 64.2 °F - 61.2 °F 90% 30.15 in 10.0 mi Calm Calm - N/A   Clear
9:35 AM 72.9 °F - 63.3 °F 72% 30.16 in 10.0 mi South 5.8 mph - N/A   Scattered Clouds
9:55 AM 73.4 °F - 63.5 °F 71% 30.17 in 10.0 mi South 5.8 mph - N/A   Scattered Clouds
10:15 AM 73.9 °F - 63.1 °F 69% 30.17 in 10.0 mi SSE 6.9 mph - N/A   Scattered Clouds
10:35 AM 75.0 °F - 63.1 °F 66% 30.17 in 10.0 mi South 5.8 mph - N/A   Scattered Clouds
10:55 AM 76.3 °F - 62.4 °F 62% 30.17 in 10.0 mi SSW 10.4 mph - N/A   Scattered Clouds
11:15 AM 77.2 °F - 63.0 °F 61% 30.16 in 10.0 mi SW 8.1 mph - N/A   Scattered Clouds
11:35 AM 77.5 °F - 61.9 °F 58% 30.16 in 10.0 mi South 4.6 mph - N/A   Scattered Clouds
11:55 AM 78.3 °F - 62.1 °F 57% 30.16 in 10.0 mi SSW 9.2 mph - N/A   Scattered Clouds
12:15 PM 78.6 °F - 62.4 °F 57% 30.15 in 10.0 mi SSE 8.1 mph - N/A   Scattered Clouds
12:35 PM 78.1 °F - 61.3 °F 56% 30.15 in 10.0 mi SSE 5.8 mph 16.1 mph N/A   Scattered Clouds
12:55 PM 79.2 °F - 61.0 °F 54% 30.14 in 10.0 mi South 6.9 mph 16.1 mph N/A   Scattered Clouds
1:15 PM 80.8 °F 81.8 °F 61.7 °F 52% 30.13 in 10.0 mi South 10.4 mph - N/A   Scattered Clouds
1:35 PM 81.1 °F 82.1 °F 61.9 °F 52% 30.13 in 10.0 mi South 11.5 mph 16.1 mph N/A   Clear
1:55 PM 81.7 °F 82.7 °F 62.2 °F 52% 30.12 in 10.0 mi South 9.2 mph - N/A   Scattered Clouds
2:15 PM 82.0 °F 82.8 °F 61.9 °F 50% 30.12 in 10.0 mi South 8.1 mph 19.6 mph N/A   Scattered Clouds
2:35 PM 81.5 °F 82.5 °F 62.2 °F 52% 30.12 in 10.0 mi SSE 8.1 mph - N/A   Scattered Clouds
3:15 PM 81.5 °F 82.4 °F 61.7 °F 51% 30.10 in 10.0 mi South 6.9 mph - N/A   Scattered Clouds
3:35 PM 81.9 °F 82.9 °F 62.8 °F 52% 30.10 in 10.0 mi SE 4.6 mph - N/A   Mostly Cloudy
3:55 PM 82.2 °F 83.2 °F 62.2 °F 51% 30.09 in 10.0 mi South 8.1 mph - N/A   Mostly Cloudy
4:15 PM 82.0 °F 83.0 °F 62.4 °F 51% 30.09 in 10.0 mi SE 5.8 mph - N/A   Scattered Clouds
4:35 PM 83.8 °F 84.3 °F 61.7 °F 47% 30.08 in 10.0 mi SSW 10.4 mph - N/A   Scattered Clouds
4:55 PM 83.7 °F 84.5 °F 62.6 °F 49% 30.08 in 10.0 mi South 5.8 mph - N/A   Scattered Clouds
5:15 PM 84.0 °F 84.9 °F 62.8 °F 49% 30.07 in 10.0 mi SSE 5.8 mph - N/A   Scattered Clouds
5:55 PM 82.6 °F 83.2 °F 61.7 °F 49% 30.07 in 10.0 mi SSE 8.1 mph - N/A   Clear
6:15 PM 82.4 °F 83.0 °F 61.5 °F 49% 30.06 in 10.0 mi South 4.6 mph - N/A   Clear
6:35 PM 82.0 °F 82.8 °F 61.9 °F 50% 30.06 in 10.0 mi South 5.8 mph - N/A   Scattered Clouds
6:55 PM 81.3 °F 82.5 °F 62.6 °F 53% 30.06 in 10.0 mi South 5.8 mph - N/A   Scattered Clouds
7:15 PM 79.7 °F - 61.7 °F 54% 30.06 in 10.0 mi South 5.8 mph - N/A   Scattered Clouds
7:35 PM 78.3 °F - 61.5 °F 56% 30.05 in 10.0 mi SSE 3.5 mph - N/A   Clear
7:55 PM 77.0 °F - 61.2 °F 58% 30.05 in 10.0 mi South 3.5 mph - N/A   Clear
8:15 PM 75.4 °F - 61.3 °F 62% 30.06 in 10.0 mi Calm Calm - N/A   Clear
8:35 PM 74.8 °F - 61.2 °F 62% 30.06 in 10.0 mi SE 3.5 mph - N/A   Clear
8:55 PM 74.3 °F - 61.2 °F 63% 30.06 in 10.0 mi Calm Calm - N/A   Clear
9:15 PM 73.6 °F - 61.2 °F 65% 30.06 in 10.0 mi Calm Calm - N/A   Clear
9:35 PM 72.9 °F - 60.3 °F 65% 30.07 in 10.0 mi South 3.5 mph - N/A   Clear
9:55 PM 72.5 °F - 59.2 °F 63% 30.07 in 10.0 mi SSE 3.5 mph - N/A   Clear
10:15 PM 71.6 °F - 57.9 °F 62% 30.08 in 10.0 mi South 3.5 mph - N/A   Clear
10:35 PM 70.3 °F - 57.7 °F 64% 30.08 in 10.0 mi South 4.6 mph - N/A   Clear
10:55 PM 69.8 °F - 57.4 °F 65% 30.08 in 10.0 mi South 3.5 mph - N/A   Clear
11:15 PM 69.8 °F - 57.2 °F 64% 30.07 in 10.0 mi South 5.8 mph - N/A   Clear
11:35 PM 69.3 °F - 56.5 °F 64% 30.07 in 10.0 mi South 4.6 mph - N/A   Clear
11:55 PM 69.1 °F - 56.3 °F 64% 30.07 in 10.0 mi South 4.6 mph - N/A   Clear